Location: ?????
(55.6500°N, 37.2500°E)
Time: 07:27:26
(UTC+00:00)

Meteor 1-11 Rocket - Pass Details

Date: 19 May 2025
Orbit: 829 x 915 km, 81.2° (Epoch: 15 June)

Event Time Altitude Azimuth Distance (km) Brightness Sun altitude
Rises 19:15:40 0° 346° (NNW) 3,394 8.5 -9.4°
Reaches altitude 10° 19:18:08 10° 350° (N) 2,452 7.4 -9.6°
Maximum altitude 19:23:36 59° 70° (ENE) 963 4.0 -10.0°
Enters shadow 19:28:25 13° 148° (SSE) 2,211 5.2 -10.3°
